Вернуться в каталог

INTEGRAL

АктивенНаукаHEO
NORAD 27540·PAYLOAD·🇪🇺 EU

Запущен Oct 17, 2002 с Baikonur Cosmodrome

Loading…

Ближайшие Пролёты (ближайшие 24 часа)

TLE

СвежийSource: Space-Track

Эпоха: Sep 13, 2026, 07:15 UTC

1 27540U 02048A   26256.30220347 -.00000076  00000-0  00000+0 0  9997
2 27540  89.1359 343.2134 8749439 257.6655 228.4760  0.37568216 26965

Отслеживайте INTEGRAL в реальном времени с AllMySat

Download on the App Store